Погода в Бриакане

Россия / Хабаровский край     52°18′40″N   135°49′36″E
темп.,
°C
ветер,
м/с
пор.,
м/с
влажн.,
%
обл.,
%
осадки,
мм/ч
давл.,
гПа
погр.,
м
20 января, чт
чт2001:00−22з119799 0.0 102711
04:00−25з219696 0.0 102811
07:00−26зюз219650 0.0 102910
10:00−24з11925 0.0 103022
13:00−15в10808 0.0 1027208
16:00−15в119120 0.0 102787
19:00−24зюз1110054 0.0 10309
22:00−25зюз219926 0.0 103011
21 января, пт
пт2101:00−26зюз219728 0.0 103011
04:00−27зюз21957 0.0 103110
07:00−27зюз21955 0.0 103110
10:00−25юз11925 0.0 103118
13:00−17вюв11844 0.0 1029186
16:00−18вюв229550 0.0 1029132
19:00−27зюз1110053 0.0 10309
22:00−27зюз1110078 0.0 10319
22 января, сб
сб2201:00−28зюз119955 0.0 10309
04:00−29юз119723 0.0 10309
07:00−30зюз119710 0.0 10309
10:00−26ююз11945 0.0 103024
13:00−19в218912 0.0 1028170
16:00−20в129417 0.0 1028139
19:00−28зюз111005 0.0 10299
22:00−28зюз1110036 0.0 10299
23 января, вс
вс2301:00−28зюз1110061 0.0 10299
04:00−29зюз1110039 0.0 10289
07:00−29юз119894 0.0 10289
10:00−25ююз11969 0.0 102722
13:00−19вюв118921 0.0 1025173
16:00−18вюв129321 0.0 1024139
19:00−27зюз1110012 0.0 10269
22:00−28зюз1110019 0.0 10259
24 января, пн
пн2401:00−28зюз119941 0.0 10259
04:00−28юз119835 0.0 10259
07:00−30зюз119823 0.0 10259
10:00−26ю009618 0.0 102527
13:00−20в219139 0.0 1023191
16:00−20вюв119443 0.0 1023146
19:00−28зюз111005 0.0 10269
22:00−29зюз1110015 0.0 10269